Carbondale, IL

8:56 AM CDT on September 23, 2019 (GMT -0500)
Southern Illinois

Weather History for KMDH - August, 2019

Change the Weather History Date:

Friday, August 23, 2019

  Actual Average Record
Temperature  
Mean Temperature 74 °F -  
Max Temperature 81 °F 87 °F 102 °F (1938)
Min Temperature 66 °F 62 °F 46 °F (1923)
Cooling Degree Days 9    
Growing Degree Days 24 (Base 50)    
Moisture  
Dew Point 70 °F    
Average Humidity 88    
Maximum Humidity 100    
Minimum Humidity 71    
Precipitation  
Precipitation 0.07 in - - ()
Sea Level Pressure  
Sea Level Pressure 30.03 in    
Wind  
Wind Speed 2 mph (ENE)    
Max Wind Speed 12 mph    
Max Gust Speed -    
Visibility 8 miles    
Events Rain    
Averages and records for this station are not official NWS values.
T = Trace of Precipitation, MM = Missing Value Source: NWS Daily Summary

Daily Weather History Graph

Daily Weather History Graph

Search for Another Location

Airport or City:

Astronomy

Aug. 23, 2019 Rise Set
Actual Time 6:19 AM CDT 7:39 PM CDT
Civil Twilight 5:51 AM CDT 8:06 PM CDT
Nautical Twilight 5:18 AM CDT 8:39 PM CDT
Astronomical Twilight 4:44 AM CDT 9:13 PM CDT
Moon No Moon Rise 1:48 PM CDT
Length of Visible Light 14h 14m
Length of Day
13h 20m
Waning Gibbous, 49% of the Moon is Illuminated
Aug 23
Waning Gibbous
Aug 30
New
Sep 5
First Quarter
Sep 13
Full
Sep 21
Last Quarter

Hourly Weather History & Observations

Time (CDT) Temp. Heat Index Dew Point Humidity Pressure Visibility Wind Dir Wind Speed Gust Speed Precip Events Conditions
12:18 AM 72.0 °F - 70.0 °F 93% 30.00 in 9.0 mi Calm Calm - N/A   Overcast
12:40 AM 72.0 °F - 70.0 °F 93% 30.00 in 9.0 mi Calm Calm - N/A   Overcast
12:52 AM 72.0 °F - 70.0 °F 93% 29.98 in 6.0 mi ENE 3.5 mph - 0.00 in Rain Light Rain
1:50 AM 71.6 °F - 71.6 °F 100% 30.00 in 10.0 mi Calm Calm - 0.01 in   Overcast
1:52 AM 72.0 °F - 71.1 °F 97% 30.00 in 10.0 mi Calm Calm - 0.01 in   Overcast
2:11 AM 72.0 °F - 71.1 °F 97% 29.99 in 5.0 mi Calm Calm - 0.00 in Rain Light Rain
2:50 AM 71.6 °F - 71.6 °F 100% 29.99 in 5.0 mi Calm Calm - 0.01 in Rain Light Rain
2:52 AM 72.0 °F - 71.1 °F 97% 29.98 in 5.0 mi Calm Calm - 0.01 in Rain Light Rain
3:01 AM 72.0 °F - 71.1 °F 97% 29.99 in 5.0 mi Calm Calm - 0.01 in Rain Light Rain
3:10 AM 72.0 °F - 71.1 °F 97% 29.99 in 5.0 mi Calm Calm - 0.02 in Rain Light Rain
3:52 AM 72.0 °F - 71.1 °F 97% 29.99 in 6.0 mi Calm Calm - 0.03 in Rain Light Rain
4:20 AM 72.0 °F - 70.0 °F 93% 30.00 in 5.0 mi SSE 3.5 mph - 0.00 in   Mostly Cloudy
4:52 AM 72.0 °F - 71.1 °F 97% 30.00 in 4.0 mi Calm Calm - 0.01 in Rain Light Rain
5:34 AM 72.0 °F - 71.1 °F 97% 30.02 in 5.0 mi Calm Calm - 0.01 in Rain Light Rain
5:52 AM 72.0 °F - 71.1 °F 97% 30.02 in 7.0 mi Calm Calm - 0.01 in   Overcast
6:43 AM 72.0 °F - 70.0 °F 93% 30.03 in 7.0 mi Calm Calm - N/A   Overcast
6:52 AM 72.0 °F - 70.0 °F 93% 30.02 in 7.0 mi SSE 3.5 mph - N/A   Overcast
7:19 AM 72.0 °F - 70.0 °F 93% 30.05 in 8.0 mi Calm Calm - N/A   Overcast
7:52 AM 72.0 °F - 70.0 °F 93% 30.05 in 7.0 mi Calm Calm - N/A   Overcast
8:09 AM 73.0 °F - 71.1 °F 93% 30.05 in 6.0 mi Calm Calm - N/A   Overcast
8:17 AM 73.0 °F - 71.1 °F 93% 30.05 in 6.0 mi Calm Calm - N/A   Overcast
8:27 AM 73.0 °F - 71.1 °F 93% 30.05 in 6.0 mi Calm Calm - N/A   Mostly Cloudy
8:48 AM 73.4 °F - 71.6 °F 94% 30.05 in 8.0 mi NNE 4.6 mph - N/A   Mostly Cloudy
8:52 AM 73.9 °F - 71.1 °F 91% 30.04 in 8.0 mi NNE 4.6 mph - N/A   Mostly Cloudy
9:52 AM 75.0 °F - 71.1 °F 87% 30.04 in 10.0 mi NE 5.8 mph - N/A   Mostly Cloudy
10:24 AM 78.1 °F - 71.1 °F 79% 30.05 in 10.0 mi NE 9.2 mph - N/A   Overcast
10:52 AM 78.1 °F - 72.0 °F 81% 30.04 in 10.0 mi ENE 5.8 mph - N/A   Overcast
11:25 AM 78.1 °F - 71.1 °F 79% 30.07 in 10.0 mi ENE 11.5 mph - N/A   Mostly Cloudy
11:52 AM 78.1 °F - 71.1 °F 79% 30.06 in 10.0 mi NE 5.8 mph - N/A   Mostly Cloudy
12:52 PM 79.0 °F - 71.1 °F 77% 30.06 in 10.0 mi East 8.1 mph - N/A   Mostly Cloudy
1:32 PM 79.0 °F - 70.0 °F 74% 30.07 in 10.0 mi East 6.9 mph - N/A   Mostly Cloudy
1:45 PM 79.0 °F - 70.0 °F 74% 30.06 in 10.0 mi NE 8.1 mph - N/A   Scattered Clouds
1:52 PM 80.1 °F 83.2 °F 70.0 °F 71% 30.05 in 10.0 mi ENE 6.9 mph - N/A   Scattered Clouds
2:52 PM 79.0 °F - 70.0 °F 74% 30.04 in 10.0 mi ENE 5.8 mph - N/A   Partly Cloudy
3:52 PM 80.1 °F 83.2 °F 70.0 °F 71% 30.03 in 10.0 mi ENE 6.9 mph - N/A   Partly Cloudy
4:52 PM 79.0 °F - 70.0 °F 74% 30.03 in 10.0 mi NE 6.9 mph - N/A   Scattered Clouds
5:52 PM 75.9 °F - 66.9 °F 74% 30.04 in 10.0 mi ENE 8.1 mph - N/A   Partly Cloudy
6:52 PM 75.0 °F - 66.0 °F 73% 30.05 in 10.0 mi ENE 9.2 mph - N/A   Clear
7:52 PM 71.1 °F - 64.9 °F 81% 30.06 in 10.0 mi ENE 4.6 mph - N/A   Clear
8:52 PM 70.0 °F - 64.9 °F 84% 30.08 in 10.0 mi NE 4.6 mph - N/A   Partly Cloudy
9:52 PM 69.1 °F - 64.9 °F 87% 30.10 in 10.0 mi ENE 3.5 mph - N/A   Clear
10:52 PM 68.0 °F - 64.9 °F 90% 30.11 in 10.0 mi NE 3.5 mph - N/A   Clear
11:52 PM 66.9 °F - 64.0 °F 90% 30.11 in 10.0 mi NE 3.5 mph - N/A   Clear